"Datum/tijd (MEZT)";"astronomisch [cm]";"verwachting RWS";"verwachte waterstand RWS tov. LAT";"waterstand [cm]";"verwachte opzet";"opzet [cm]"
2024-05-14 07:00;85;114;206.685;113;29;28
2024-05-14 07:10;92;120;212.685;120;28;28
2024-05-14 07:20;98;124;216.685;125;26;27
2024-05-14 07:30;102;124;216.685;128;22;26
2024-05-14 07:40;104;124;216.685;127;20;23
2024-05-14 07:50;105;123;215.685;126;18;21
2024-05-14 08:00;105;120;212.685;124;15;19
2024-05-14 08:10;104;118;210.685;121;14;17
2024-05-14 08:20;103;116;208.685;117;13;14
2024-05-14 08:30;101;113;205.685;114;12;13
2024-05-14 08:40;99;110;202.685;111;11;12
2024-05-14 08:50;96;107;199.685;109;11;13
2024-05-14 09:00;93;105;197.685;106;12;13
2024-05-14 09:10;90;102;194.685;103;12;13
2024-05-14 09:20;87;99;191.685;100;12;13
2024-05-14 09:30;83;94;186.685;96;11;13
2024-05-14 09:40;79;90;182.685;91;11;12
2024-05-14 09:50;75;87;179.685;88;12;13
2024-05-14 10:00;70;82;174.685;82;12;12
2024-05-14 10:10;64;77;169.685;78;13;14
2024-05-14 10:20;58;72;164.685;74;14;16
2024-05-14 10:30;52;66;158.685;68;14;16
2024-05-14 10:40;46;60;152.685;61;14;15
2024-05-14 10:50;40;53;145.685;56;13;16
2024-05-14 11:00;34;48;140.685;47;14;13
2024-05-14 11:10;28;41;133.685;41;13;13
2024-05-14 11:20;22;33;125.685;33;11;11
2024-05-14 11:30;16;25;117.685;25;9;9
2024-05-14 11:40;10;18;110.685;18;8;8
2024-05-14 11:50;4;11;103.685;12;7;8
2024-05-14 12:00;-2;4;96.685;5;6;7
2024-05-14 12:10;-8;-2;90.685;0;6;8
2024-05-14 12:20;-13;-7;85.685;-5;6;8
2024-05-14 12:30;-18;-12;80.685;-10;6;8
2024-05-14 12:40;-23;-17;75.685;-14;6;9
2024-05-14 12:50;-27;-21;71.685;-17;6;10
2024-05-14 13:00;-31;-24;68.685;-21;7;10
2024-05-14 13:10;-34;-27;65.685;-25;7;9
2024-05-14 13:20;-37;-29;63.685;-28;8;9
2024-05-14 13:30;-40;-30;62.685;-30;10;10
2024-05-14 13:40;-43;-32;60.685;-32;11;11
2024-05-14 13:50;-45;-32;60.685;-33;13;12
2024-05-14 14:00;-46;-33;59.685;-35;13;11
2024-05-14 14:10;-48;-35;57.685;-36;13;12
2024-05-14 14:20;-49;-36;56.685;-36;13;13
2024-05-14 14:30;-50;-37;55.685;-38;13;12
2024-05-14 14:40;-50;-39;53.685;-36;11;14
2024-05-14 14:50;-51;-40;52.685;-36;11;15
2024-05-14 15:00;-50;-40;52.685;-39;10;11
2024-05-14 15:10;-50;-41;51.685;-39;9;11
2024-05-14 15:20;-50;-41;51.685;-39;9;11
2024-05-14 15:30;-50;-41;51.685;-39;9;11
2024-05-14 15:40;-49;-40;52.685;-38;9;11
2024-05-14 15:50;-49;-39;53.685;-39;10;10
2024-05-14 16:00;-49;-39;53.685;-38;10;11
2024-05-14 16:10;-49;-38;54.685;-36;11;13
2024-05-14 16:20;-49;-37;55.685;-34;12;15
2024-05-14 16:30;-48;-36;56.685;-33;12;15
2024-05-14 16:40;-47;-34;58.685;-32;13;15
2024-05-14 16:50;-45;-31;61.685;-30;14;15
2024-05-14 17:00;-42;-29;63.685;-27;13;15
2024-05-14 17:10;-38;-25;67.685;-25;13;13
2024-05-14 17:20;-33;-22;70.685;-23;11;10
2024-05-14 17:30;-27;-17;75.685;-18;10;9
2024-05-14 17:40;-21;-12;80.685;-14;9;7
2024-05-14 17:50;-14;-6;86.685;-8;8;6
2024-05-14 18:00;-7;0;92.685;-3;7;4
2024-05-14 18:10;0;6;98.685;4;6;4
2024-05-14 18:20;8;14;106.685;12;6;4
2024-05-14 18:30;16;23;115.685;21;7;5
2024-05-14 18:40;24;33;125.685;29;9;5
2024-05-14 18:50;31;43;135.685;38;12;7
2024-05-14 19:00;38;51;143.685;48;13;10
2024-05-14 19:10;45;60;152.685;58;15;13
2024-05-14 19:20;51;69;161.685;67;18;16
2024-05-14 19:30;56;76;168.685;74;20;18
2024-05-14 19:40;60;82;174.685;80;22;20
2024-05-14 19:50;63;86;178.685;86;23;23
2024-05-14 20:00;66;88;180.685;89;22;23
2024-05-14 20:10;67;89;181.685;90;22;23
2024-05-14 20:20;68;89;181.685;92;21;24
2024-05-14 20:30;68;88;180.685;90;20;22
2024-05-14 20:40;67;87;179.685;90;20;23
2024-05-14 20:50;66;85;177.685;87;19;21
2024-05-14 21:00;64;82;174.685;83;18;19
2024-05-14 21:10;63;79;171.685;80;16;17
2024-05-14 21:20;61;76;168.685;76;15;15
2024-05-14 21:30;58;72;164.685;71;14;13
2024-05-14 21:40;56;68;160.685;68;12;12
2024-05-14 21:50;53;63;155.685;63;10;10
2024-05-14 22:00;49;57;149.685;58;8;9
2024-05-14 22:10;45;52;144.685;54;7;9
2024-05-14 22:20;41;46;138.685;48;5;7
2024-05-14 22:30;35;40;132.685;42;5;7
2024-05-14 22:40;29;34;126.685;36;5;7
2024-05-14 22:50;23;27;119.685;29;4;6
2024-05-14 23:00;16;20;112.685;21;4;5
2024-05-14 23:10;9;12;104.685;14;3;5
2024-05-14 23:20;1;3;95.685;5;2;4
2024-05-14 23:30;-6;-5;87.685;-3;1;3
2024-05-14 23:40;-14;-14;78.685;-10;0;4
2024-05-14 23:50;-21;-22;70.685;-18;-1;3
2024-05-15 00:00;-28;-30;62.685;-26;-2;2
2024-05-15 00:10;-35;-37;55.685;-32;-2;3
2024-05-15 00:20;-42;-45;47.685;-39;-3;3
2024-05-15 00:30;-48;-51;41.685;-44;-3;4
2024-05-15 00:40;-54;-57;35.685;-49;-3;5
2024-05-15 00:50;-59;-62;30.685;-54;-3;5
2024-05-15 01:00;-64;-60;32.685;-59;4;5
2024-05-15 01:10;-68;-65;27.685;-63;3;5
2024-05-15 01:20;-72;-69;23.685;-66;3;6
2024-05-15 01:30;-74;-71;21.685;-69;3;5
2024-05-15 01:40;-77;-74;18.685;-73;3;4
2024-05-15 01:50;-78;-77;15.685;-75;1;3
2024-05-15 02:00;-79;-79;13.685;-76;0;3
2024-05-15 02:10;-80;-79;13.685;-77;1;3
2024-05-15 02:20;-80;-80;12.685;-77;0;3
2024-05-15 02:30;-80;-79;13.685;-76;1;4
2024-05-15 02:40;-80;-78;14.685;-73;2;7
2024-05-15 02:50;-80;-77;15.685;-72;3;8
2024-05-15 03:00;-80;-75;17.685;-71;5;9
2024-05-15 03:10;-79;-74;18.685;-68;5;11
2024-05-15 03:20;-78;-72;20.685;-67;6;11
2024-05-15 03:30;-78;-70;22.685;-65;8;13
2024-05-15 03:40;-77;-69;23.685;-65;8;12
2024-05-15 03:50;-77;-69;23.685;-64;8;13
2024-05-15 04:00;-76;-68;24.685;-62;8;14
2024-05-15 04:10;-75;-68;24.685;-61;7;14
2024-05-15 04:20;-74;-67;25.685;-61;7;13
2024-05-15 04:30;-73;-67;25.685;-60;6;13
2024-05-15 04:40;-71;-66;26.685;-60;5;11
2024-05-15 04:50;-69;-65;27.685;-58;4;11
2024-05-15 05:00;-66;-62;30.685;-56;4;10
2024-05-15 05:10;-62;-59;33.685;-54;3;8
2024-05-15 05:20;-58;-55;37.685;-50;3;8
2024-05-15 05:30;-52;-49;43.685;-46;3;6
2024-05-15 05:40;-46;-42;50.685;-40;4;6
2024-05-15 05:50;-38;-34;58.685;-34;4;4
2024-05-15 06:00;-30;-24;68.685;-26;6;4
2024-05-15 06:10;-22;-14;78.685;-18;8;4
2024-05-15 06:20;-12;-2;90.685;-7;10;5
2024-05-15 06:30;-2;10;102.685;3;12;5
2024-05-15 06:40;8;23;115.685;15;15;7
2024-05-15 06:50;18;38;130.685;29;20;11
2024-05-15 07:00;28;49;141.685;41;21;13
2024-05-15 07:10;38;63;155.685;56;25;18
2024-05-15 07:20;47;75;167.685;70;28;23
2024-05-15 07:30;55;88;180.685;83;33;28
2024-05-15 07:40;63;97;189.685;94;34;31
2024-05-15 07:50;70;105;197.685;105;35;35
2024-05-15 08:00;76;111;203.685;112;35;36
2024-05-15 08:10;81;116;208.685;117;35;36
2024-05-15 08:20;85;118;210.685;120;33;35
2024-05-15 08:30;88;119;211.685;121;31;33
2024-05-15 08:40;90;119;211.685;121;29;31
2024-05-15 08:50;91;117;209.685;120;26;29
2024-05-15 09:00;92;116;208.685;118;24;26
2024-05-15 09:10;92;114;206.685;116;22;24
2024-05-15 09:20;91;112;204.685;114;21;23
2024-05-15 09:30;90;109;201.685;112;19;22
2024-05-15 09:40;88;107;199.685;109;19;21
2024-05-15 09:50;86;104;196.685;106;18;20
2024-05-15 10:00;84;101;193.685;104;17;20
2024-05-15 10:10;81;99;191.685;99;18;18
2024-05-15 10:20;78;95;187.685;96;17;18
2024-05-15 10:30;75;91;183.685;93;16;18
2024-05-15 10:40;71;86;178.685;88;15;17
2024-05-15 10:50;67;82;174.685;83;15;16
2024-05-15 11:00;63;78;170.685;79;15;16
2024-05-15 11:10;59;74;166.685;74;15;15
2024-05-15 11:20;54;68;160.685;70;14;16
2024-05-15 11:30;50;63;155.685;65;13;15
2024-05-15 11:40;45;57;149.685;58;12;13
2024-05-15 11:50;40;51;143.685;51;11;11
2024-05-15 12:00;34;44;136.685;;10;
2024-05-15 12:10;29;36;128.685;;7;
2024-05-15 12:20;24;29;121.685;33;5;9
2024-05-15 12:30;18;21;113.685;27;3;9
2024-05-15 12:40;12;13;105.685;21;1;9
2024-05-15 12:50;7;6;98.685;16;-1;9
2024-05-15 13:00;1;5;97.685;10;4;9
2024-05-15 13:10;-4;-1;91.685;4;3;8
2024-05-15 13:20;-9;-7;85.685;-2;2;7
2024-05-15 13:30;-14;-13;79.685;-8;1;6
2024-05-15 13:40;-19;-19;73.685;-13;0;6
2024-05-15 13:50;-24;-23;69.685;-17;1;7
2024-05-15 14:00;-28;-27;65.685;-21;1;7
2024-05-15 14:10;-32;-30;62.685;-25;2;7
2024-05-15 14:20;-35;-33;59.685;-29;2;6
2024-05-15 14:30;-38;-35;57.685;-32;3;6
2024-05-15 14:40;-41;-36;56.685;-33;5;8
2024-05-15 14:50;-43;-37;55.685;-35;6;8
2024-05-15 15:00;-45;-37;55.685;-36;8;9
2024-05-15 15:10;-46;-38;54.685;-37;8;9
2024-05-15 15:20;-47;-38;54.685;-38;9;9
2024-05-15 15:30;-48;-38;54.685;-37;10;11
2024-05-15 15:40;-48;-38;54.685;-37;10;11
2024-05-15 15:50;-48;-39;53.685;-38;9;10
2024-05-15 16:00;-48;-39;53.685;-38;9;10
2024-05-15 16:10;-48;-39;53.685;-36;9;12
2024-05-15 16:20;-47;-39;53.685;-37;8;10
2024-05-15 16:30;-47;-40;52.685;-35;7;12
2024-05-15 16:40;-46;-40;52.685;-35;6;11
2024-05-15 16:50;-46;-40;52.685;-35;6;11
2024-05-15 17:00;-45;-40;52.685;-34;5;11
2024-05-15 17:10;-44;-38;54.685;-32;6;12
2024-05-15 17:20;-43;-37;55.685;-32;6;11
2024-05-15 17:30;-42;-30;62.685;-30;12;12
2024-05-15 17:40;-39;-28;64.685;-28;11;11
2024-05-15 17:50;-36;-27;65.685;-27;9;9
2024-05-15 18:00;-33;-23;69.685;-23;10;10
2024-05-15 18:10;-28;-20;72.685;-20;8;8
2024-05-15 18:20;-23;-18;74.685;-18;5;5
2024-05-15 18:30;-18;-13;79.685;-13;5;5
2024-05-15 18:40;-12;-9;83.685;-9;3;3
2024-05-15 18:50;-5;-5;87.685;-5;0;0
2024-05-15 19:00;1;2;94.685;0;1;-1
2024-05-15 19:10;7;9;101.685;5;2;-2
2024-05-15 19:20;13;17;109.685;10;4;-3
2024-05-15 19:30;19;24;116.685;18;5;-1
2024-05-15 19:40;25;33;125.685;25;8;0
2024-05-15 19:50;30;40;132.685;33;10;3
2024-05-15 20:00;35;47;139.685;42;12;7
2024-05-15 20:10;39;54;146.685;49;15;10
2024-05-15 20:20;43;60;152.685;57;17;14
2024-05-15 20:30;47;65;157.685;63;18;16
2024-05-15 20:40;50;70;162.685;67;20;17
2024-05-15 20:50;53;73;165.685;71;20;18
2024-05-15 21:00;55;77;169.685;74;22;19
2024-05-15 21:10;56;79;171.685;75;23;19
2024-05-15 21:20;57;80;172.685;76;23;19
2024-05-15 21:30;57;81;173.685;77;24;20
2024-05-15 21:40;56;80;172.685;76;24;20
2024-05-15 21:50;56;78;170.685;74;22;18
2024-05-15 22:00;55;75;167.685;71;20;16
2024-05-15 22:10;53;72;164.685;68;19;15
2024-05-15 22:20;52;69;161.685;65;17;13
2024-05-15 22:30;50;66;158.685;62;16;12
2024-05-15 22:40;48;61;153.685;58;13;10
2024-05-15 22:50;46;57;149.685;54;11;8
2024-05-15 23:00;43;53;145.685;50;10;7
2024-05-15 23:10;39;48;140.685;46;9;7
2024-05-15 23:20;35;43;135.685;42;8;7
2024-05-15 23:30;30;38;130.685;35;8;5
2024-05-15 23:40;25;31;123.685;29;6;4
2024-05-15 23:50;19;24;116.685;23;5;4
2024-05-16 00:00;13;18;110.685;17;5;4
2024-05-16 00:10;6;11;103.685;9;5;3
2024-05-16 00:20;0;3;95.685;2;3;2
2024-05-16 00:30;-7;-5;87.685;-4;2;3
2024-05-16 00:40;-14;-12;80.685;-11;2;3
2024-05-16 00:50;-21;-19;73.685;-17;2;4
2024-05-16 01:00;-27;-25;67.685;-23;2;4
2024-05-16 01:10;-33;-32;60.685;-28;1;5
2024-05-16 01:20;-39;-38;54.685;-35;1;4
2024-05-16 01:30;-45;-44;48.685;-39;1;6
2024-05-16 01:40;-51;-49;43.685;-45;2;6
2024-05-16 01:50;-56;-55;37.685;-49;1;7
2024-05-16 02:00;-61;-60;32.685;-55;1;6
2024-05-16 02:10;-65;-64;28.685;-58;1;7
2024-05-16 02:20;-68;-68;24.685;-62;0;6
2024-05-16 02:30;-71;-72;20.685;-66;-1;5
2024-05-16 02:40;-73;-74;18.685;-69;-1;4
2024-05-16 02:50;-75;-76;16.685;-70;-1;5
2024-05-16 03:00;-77;-77;15.685;-72;0;5
2024-05-16 03:10;-78;-77;15.685;-72;1;6
2024-05-16 03:20;-79;-77;15.685;-72;2;7
2024-05-16 03:30;-79;-76;16.685;-71;3;8
2024-05-16 03:40;-80;-75;17.685;-70;5;10
2024-05-16 03:50;-80;-74;18.685;-69;6;11
2024-05-16 04:00;-80;-71;21.685;-67;9;13
2024-05-16 04:10;-80;-70;22.685;-65;10;15
2024-05-16 04:20;-80;-68;24.685;-62;12;18
2024-05-16 04:30;-79;-66;26.685;-60;13;19
2024-05-16 04:40;-78;-65;27.685;-59;13;19
2024-05-16 04:50;-77;-64;28.685;-58;13;19
2024-05-16 05:00;-75;-63;29.685;-57;12;18
2024-05-16 05:10;-74;-62;30.685;-56;12;18
2024-05-16 05:20;-72;-61;31.685;-56;11;16
2024-05-16 05:30;-69;-61;31.685;-55;8;14
2024-05-16 05:40;-67;-61;31.685;-56;6;11
2024-05-16 05:50;-63;-59;33.685;-54;4;9
2024-05-16 06:00;-60;-56;36.685;-50;4;10
2024-05-16 06:10;-56;-54;38.685;-47;2;9
2024-05-16 06:20;-51;-50;42.685;-44;1;7
2024-05-16 06:30;-45;-45;47.685;-38;0;7
2024-05-16 06:40;-39;-39;53.685;-34;0;5
2024-05-16 06:50;-31;-32;60.685;-28;-1;3
2024-05-16 07:00;-24;-21;71.685;-22;3;2
2024-05-16 07:10;-16;-13;79.685;-15;3;1
2024-05-16 07:20;-8;-3;89.685;-7;5;1
2024-05-16 07:30;0;7;99.685;2;7;2
2024-05-16 07:40;8;19;111.685;13;11;5
2024-05-16 07:50;16;30;122.685;25;14;9
2024-05-16 08:00;23;42;134.685;38;19;15
2024-05-16 08:10;31;53;145.685;49;22;18
2024-05-16 08:20;37;65;157.685;61;28;24
2024-05-16 08:30;44;75;167.685;73;31;29
2024-05-16 08:40;50;85;177.685;82;35;32
2024-05-16 08:50;56;93;185.685;90;37;34
2024-05-16 09:00;62;100;192.685;97;38;35
2024-05-16 09:10;67;105;197.685;103;38;36
2024-05-16 09:20;71;109;201.685;108;38;37
2024-05-16 09:30;75;111;203.685;111;36;36
2024-05-16 09:40;78;112;204.685;113;34;35
2024-05-16 09:50;81;113;205.685;115;32;34
2024-05-16 10:00;82;112;204.685;113;30;31
2024-05-16 10:10;83;112;204.685;113;29;30
2024-05-16 10:20;83;110;202.685;112;27;29
2024-05-16 10:30;83;108;200.685;110;25;27
2024-05-16 10:40;82;106;198.685;108;24;26
2024-05-16 10:50;81;103;195.685;107;22;26
2024-05-16 11:00;80;104;196.685;105;24;25
2024-05-16 11:10;78;102;194.685;103;24;25
2024-05-16 11:20;76;99;191.685;99;23;23
2024-05-16 11:30;74;97;189.685;97;23;23
2024-05-16 11:40;71;94;186.685;94;23;23
2024-05-16 11:50;68;90;182.685;91;22;23
2024-05-16 12:00;65;86;178.685;85;21;20
2024-05-16 12:10;61;82;174.685;81;21;20
2024-05-16 12:20;57;77;169.685;77;20;20
2024-05-16 12:30;53;72;164.685;72;19;19
2024-05-16 12:40;48;66;158.685;66;18;18
2024-05-16 12:50;43;60;152.685;62;17;19
2024-05-16 13:00;38;54;146.685;57;16;19
2024-05-16 13:10;33;47;139.685;51;14;18
2024-05-16 13:20;28;41;133.685;46;13;18
2024-05-16 13:30;23;32;124.685;40;9;17
2024-05-16 13:40;17;25;117.685;34;8;17
2024-05-16 13:50;12;20;112.685;30;8;18
2024-05-16 14:00;6;14;106.685;23;8;17
2024-05-16 14:10;1;8;100.685;17;7;16
2024-05-16 14:20;-5;3;95.685;13;8;18
2024-05-16 14:30;-10;-2;90.685;6;8;16
2024-05-16 14:40;-15;-7;85.685;1;8;16
2024-05-16 14:50;-20;-12;80.685;-3;8;17
2024-05-16 15:00;-25;-16;76.685;-6;9;19
2024-05-16 15:10;-29;-19;73.685;-11;10;18
2024-05-16 15:20;-32;-23;69.685;-14;9;18
2024-05-16 15:30;-36;-25;67.685;-16;11;20
2024-05-16 15:40;-39;-26;66.685;-20;13;19
2024-05-16 15:50;-41;-28;64.685;-21;13;20
2024-05-16 16:00;-43;-28;64.685;-23;15;20
2024-05-16 16:10;-45;-29;63.685;-24;16;21
2024-05-16 16:20;-46;-29;63.685;-26;17;20
2024-05-16 16:30;-47;-29;63.685;-27;18;20
2024-05-16 16:40;-48;-30;62.685;-28;18;20
2024-05-16 16:50;-48;-30;62.685;-28;18;20
2024-05-16 17:00;-47;-31;61.685;-28;16;19
2024-05-16 17:10;-47;-32;60.685;-28;15;19
2024-05-16 17:20;-46;-32;60.685;-27;14;19
2024-05-16 17:30;-46;-32;60.685;-26;14;20
2024-05-16 17:40;-45;-32;60.685;-25;13;20
2024-05-16 17:50;-44;-32;60.685;-25;12;19
2024-05-16 18:00;-43;-25;67.685;-25;18;18
2024-05-16 18:10;-42;-25;67.685;-25;17;17
2024-05-16 18:20;-41;-23;69.685;-23;18;18
2024-05-16 18:30;-39;-22;70.685;-22;17;17
2024-05-16 18:40;-36;-20;72.685;-20;16;16
2024-05-16 18:50;-33;-19;73.685;-19;14;14
2024-05-16 19:00;-30;-17;75.685;-18;13;12
2024-05-16 19:10;-26;-16;76.685;-15;10;11
2024-05-16 19:20;-21;-13;79.685;-13;8;8
2024-05-16 19:30;-17;-9;83.685;-10;8;7
2024-05-16 19:40;-12;-5;87.685;-6;7;6
2024-05-16 19:50;-7;-1;91.685;-1;6;6
2024-05-16 20:00;-2;3;95.685;3;5;5
2024-05-16 20:10;2;8;100.685;9;6;7
2024-05-16 20:20;7;14;106.685;15;7;8
2024-05-16 20:30;11;19;111.685;20;8;9
2024-05-16 20:40;16;25;117.685;26;9;10
2024-05-16 20:50;20;31;123.685;34;11;14
2024-05-16 21:00;25;38;130.685;39;13;14
2024-05-16 21:10;29;44;136.685;46;15;17
2024-05-16 21:20;33;51;143.685;54;18;21
2024-05-16 21:30;37;57;149.685;60;20;23
2024-05-16 21:40;40;63;155.685;68;23;28
2024-05-16 21:50;43;68;160.685;73;25;30
2024-05-16 22:00;46;72;164.685;76;26;30
2024-05-16 22:10;48;75;167.685;78;27;30
2024-05-16 22:20;49;76;168.685;80;27;31
2024-05-16 22:30;50;78;170.685;81;28;31
2024-05-16 22:40;50;78;170.685;80;28;30
2024-05-16 22:50;51;76;168.685;79;25;28
2024-05-16 23:00;51;74;166.685;78;23;27
2024-05-16 23:10;51;72;164.685;77;21;26
2024-05-16 23:20;51;69;161.685;74;18;23
2024-05-16 23:30;50;67;159.685;70;17;20
2024-05-16 23:40;49;64;156.685;68;15;19
2024-05-16 23:50;48;61;153.685;64;13;16
2024-05-17 00:00;45;58;150.685;59;13;14
2024-05-17 00:10;42;54;146.685;55;12;13
2024-05-17 00:20;38;49;141.685;50;11;12
2024-05-17 00:30;33;44;136.685;46;11;13
2024-05-17 00:40;28;39;131.685;41;11;13
2024-05-17 00:50;22;33;125.685;36;11;14
2024-05-17 01:00;16;30;122.685;30;14;14
2024-05-17 01:10;10;23;115.685;24;13;14
2024-05-17 01:20;4;18;110.685;19;14;15
2024-05-17 01:30;-2;11;103.685;11;13;13
2024-05-17 01:40;-8;4;96.685;5;12;13
2024-05-17 01:50;-15;-3;89.685;0;12;15
2024-05-17 02:00;-21;-9;83.685;-7;12;14
2024-05-17 02:10;-27;-16;76.685;-13;11;14
2024-05-17 02:20;-33;-22;70.685;-18;11;15
2024-05-17 02:30;-39;-29;63.685;-24;10;15
2024-05-17 02:40;-44;-35;57.685;-29;9;15
2024-05-17 02:50;-50;-41;51.685;-35;9;15
2024-05-17 03:00;-54;-46;46.685;-40;8;14
2024-05-17 03:10;-58;-51;41.685;-44;7;14
2024-05-17 03:20;-62;-55;37.685;-48;7;14
2024-05-17 03:30;-65;-60;32.685;-52;5;13
2024-05-17 03:40;-68;-64;28.685;-55;4;13
2024-05-17 03:50;-70;-66;26.685;-57;4;13
2024-05-17 04:00;-72;-69;23.685;-59;3;13
2024-05-17 04:10;-74;-71;21.685;-61;3;13
2024-05-17 04:20;-76;-72;20.685;-63;4;13
2024-05-17 04:30;-77;-73;19.685;-64;4;13
2024-05-17 04:40;-78;-72;20.685;-65;6;13
2024-05-17 04:50;-79;-72;20.685;-64;7;15
2024-05-17 05:00;-80;-71;21.685;-63;9;17
2024-05-17 05:10;-80;-70;22.685;-61;10;19
2024-05-17 05:20;-79;-68;24.685;-60;11;19
2024-05-17 05:30;-78;-66;26.685;-58;12;20
2024-05-17 05:40;-77;-64;28.685;-56;13;21
2024-05-17 05:50;-75;-63;29.685;-56;12;19
2024-05-17 06:00;-73;-62;30.685;-54;11;19
2024-05-17 06:10;-71;-61;31.685;-54;10;17
2024-05-17 06:20;-69;-61;31.685;-53;8;16
2024-05-17 06:30;-66;-61;31.685;-52;5;14
2024-05-17 06:40;-63;-61;31.685;-51;2;12
2024-05-17 06:50;-60;-60;32.685;-50;0;10
2024-05-17 07:00;-57;-54;38.685;-50;3;7
2024-05-17 07:10;-53;-54;38.685;-47;-1;6
2024-05-17 07:20;-48;-52;40.685;-45;-4;3
2024-05-17 07:30;-43;-49;43.685;-43;-6;0
2024-05-17 07:40;-38;-46;46.685;-40;-8;-2
2024-05-17 07:50;-32;-41;51.685;-36;-9;-4
2024-05-17 08:00;-26;-34;58.685;-30;-8;-4
2024-05-17 08:10;-19;-27;65.685;-25;-8;-6
2024-05-17 08:20;-13;-20;72.685;-18;-7;-5
2024-05-17 08:30;-7;-12;80.685;-10;-5;-3
2024-05-17 08:40;-1;-3;89.685;-1;-2;0
2024-05-17 08:50;5;6;98.685;9;1;4
2024-05-17 09:00;11;16;108.685;19;5;8
2024-05-17 09:10;18;26;118.685;29;8;11
2024-05-17 09:20;24;38;130.685;41;14;17
2024-05-17 09:30;31;49;141.685;52;18;21
2024-05-17 09:40;38;60;152.685;64;22;26
2024-05-17 09:50;45;71;163.685;74;26;29
2024-05-17 10:00;51;81;173.685;84;30;33
2024-05-17 10:10;57;89;181.685;92;32;35
2024-05-17 10:20;63;95;187.685;98;32;35
2024-05-17 10:30;68;101;193.685;103;33;35
2024-05-17 10:40;72;104;196.685;106;32;34
2024-05-17 10:50;76;105;197.685;109;29;33
2024-05-17 11:00;79;107;199.685;111;28;32
2024-05-17 11:10;81;107;199.685;111;26;30
2024-05-17 11:20;82;106;198.685;112;24;30
2024-05-17 11:30;83;105;197.685;112;22;29
2024-05-17 11:40;84;104;196.685;111;20;27
2024-05-17 11:50;84;102;194.685;110;18;26
2024-05-17 12:00;84;100;192.685;108;16;24
2024-05-17 12:10;83;98;190.685;105;15;22
2024-05-17 12:20;82;97;189.685;102;15;20
2024-05-17 12:30;80;94;186.685;101;14;21
2024-05-17 12:40;77;92;184.685;97;15;20
2024-05-17 12:50;74;89;181.685;94;15;20
2024-05-17 13:00;70;91;183.685;91;21;21
2024-05-17 13:10;66;87;179.685;88;21;22
2024-05-17 13:20;62;83;175.685;84;21;22
2024-05-17 13:30;57;78;170.685;80;21;23
2024-05-17 13:40;53;73;165.685;74;20;21
2024-05-17 13:50;48;67;159.685;69;19;21
2024-05-17 14:00;43;61;153.685;63;18;20
2024-05-17 14:10;38;55;147.685;57;17;19
2024-05-17 14:20;33;49;141.685;52;16;19
2024-05-17 14:30;28;42;134.685;46;14;18
2024-05-17 14:40;22;35;127.685;41;13;19
2024-05-17 14:50;16;29;121.685;35;13;19
2024-05-17 15:00;10;23;115.685;29;13;19
2024-05-17 15:10;4;16;108.685;24;12;20
2024-05-17 15:20;-2;10;102.685;17;12;19
2024-05-17 15:30;-8;3;95.685;12;11;20
2024-05-17 15:40;-13;-3;89.685;6;10;19
2024-05-17 15:50;-18;-9;83.685;0;9;18
2024-05-17 16:00;-23;-15;77.685;-5;8;18
2024-05-17 16:10;-28;-20;72.685;-10;8;18
2024-05-17 16:20;-32;-24;68.685;-14;8;18
2024-05-17 16:30;-35;-28;64.685;-17;7;18
2024-05-17 16:40;-39;-31;61.685;-20;8;19
2024-05-17 16:50;-42;-33;59.685;-23;9;19
2024-05-17 17:00;-44;-35;57.685;-25;9;19
2024-05-17 17:10;-46;-36;56.685;-27;10;19
2024-05-17 17:20;-47;-36;56.685;-28;11;19
2024-05-17 17:30;-48;-34;58.685;-31;14;17
2024-05-17 17:40;-49;-33;59.685;-30;16;19
2024-05-17 17:50;-49;-31;61.685;-31;18;18
2024-05-17 18:00;-48;-31;61.685;-31;17;17
2024-05-17 18:10;-48;-30;62.685;-30;18;18
2024-05-17 18:20;-47;-30;62.685;-30;17;17
2024-05-17 18:30;-46;-30;62.685;-30;16;16
2024-05-17 18:40;-46;-28;64.685;-28;18;18
2024-05-17 18:50;-45;-28;64.685;-28;17;17
2024-05-17 19:00;-44;-28;64.685;-29;16;15
2024-05-17 19:10;-43;-27;65.685;-29;16;14
2024-05-17 19:20;-42;-27;65.685;-28;15;14
2024-05-17 19:30;-41;-27;65.685;-28;14;13
2024-05-17 19:40;-39;-26;66.685;-26;13;13
2024-05-17 19:50;-37;-26;66.685;-25;11;12
2024-05-17 20:00;-34;-25;67.685;-25;9;9
2024-05-17 20:10;-31;-23;69.685;-21;8;10
2024-05-17 20:20;-28;-21;71.685;-21;7;7
2024-05-17 20:30;-24;-18;74.685;-19;6;5
2024-05-17 20:40;-20;-15;77.685;-17;5;3
2024-05-17 20:50;-17;-11;81.685;-14;6;3
2024-05-17 21:00;-13;-8;84.685;-11;5;2
2024-05-17 21:10;-9;-4;88.685;-7;5;2
2024-05-17 21:20;-4;1;93.685;-1;5;3
2024-05-17 21:30;0;7;99.685;5;7;5
2024-05-17 21:40;5;13;105.685;10;8;5
2024-05-17 21:50;11;20;112.685;18;9;7
2024-05-17 22:00;16;27;119.685;25;11;9
2024-05-17 22:10;21;34;126.685;33;13;12
2024-05-17 22:20;26;43;135.685;41;17;15
2024-05-17 22:30;31;51;143.685;48;20;17
2024-05-17 22:40;35;59;151.685;56;24;21
2024-05-17 22:50;39;65;157.685;63;26;24
2024-05-17 23:00;43;71;163.685;68;28;25
2024-05-17 23:10;46;75;167.685;73;29;27
2024-05-17 23:20;48;79;171.685;77;31;29
2024-05-17 23:30;51;82;174.685;78;31;27
2024-05-17 23:40;53;83;175.685;80;30;27
2024-05-17 23:50;55;84;176.685;80;29;25
2024-05-18 00:00;57;79;171.685;79;22;22
2024-05-18 00:10;58;80;172.685;80;22;22
2024-05-18 00:20;59;78;170.685;78;19;19
2024-05-18 00:30;59;77;169.685;77;18;18
2024-05-18 00:40;58;75;167.685;75;17;17
2024-05-18 00:50;56;72;164.685;72;16;16
2024-05-18 01:00;53;70;162.685;69;17;16
2024-05-18 01:10;49;66;158.685;66;17;17
2024-05-18 01:20;45;62;154.685;61;17;16
2024-05-18 01:30;40;57;149.685;56;17;16
2024-05-18 01:40;34;52;144.685;51;18;17
2024-05-18 01:50;29;47;139.685;45;18;16
2024-05-18 02:00;23;42;134.685;40;19;17
2024-05-18 02:10;17;36;128.685;34;19;17
2024-05-18 02:20;11;30;122.685;28;19;17
2024-05-18 02:30;5;24;116.685;23;19;18
2024-05-18 02:40;-1;18;110.685;17;19;18
2024-05-18 02:50;-7;11;103.685;12;18;19
2024-05-18 03:00;-14;5;97.685;6;19;20
2024-05-18 03:10;-20;-2;90.685;-1;18;19
2024-05-18 03:20;-27;-10;82.685;-6;17;21
2024-05-18 03:30;-33;-17;75.685;-12;16;21
2024-05-18 03:40;-38;-24;68.685;-18;14;20
2024-05-18 03:50;-44;-31;61.685;-24;13;20
2024-05-18 04:00;-49;-37;55.685;-30;12;19
2024-05-18 04:10;-53;-43;49.685;-34;10;19
2024-05-18 04:20;-57;-48;44.685;-39;9;18
2024-05-18 04:30;-60;-53;39.685;-43;7;17
2024-05-18 04:40;-63;-56;36.685;-47;7;16
2024-05-18 04:50;-66;-59;33.685;-51;7;15
2024-05-18 05:00;-69;-63;29.685;-54;6;15
2024-05-18 05:10;-72;-65;27.685;-56;7;16
2024-05-18 05:20;-74;-67;25.685;-59;7;15
2024-05-18 05:30;-76;-68;24.685;-61;8;15
2024-05-18 05:40;-77;-68;24.685;-61;9;16
2024-05-18 05:50;-78;-69;23.685;-61;9;17
2024-05-18 06:00;-79;-68;24.685;-61;11;18
2024-05-18 06:10;-78;-67;25.685;-59;11;19
2024-05-18 06:20;-77;-65;27.685;-58;12;19
2024-05-18 06:30;-76;-63;29.685;-56;13;20
2024-05-18 06:40;-74;-62;30.685;-54;12;20
2024-05-18 06:50;-73;-61;31.685;-53;12;20
2024-05-18 07:00;-71;-57;35.685;-52;14;19